This is the latest recevied weather packets stored in our database for station/object KX4O-13. If no packets are shown the sender has not sent any weather packets the latest 10 day(s).
| Time | Temp. | Humidity | Pressure | Rain* | Wind** | Luminosity | Snow |
|---|---|---|---|---|---|---|---|
| 1777927254 | 23.89° C | 37% | 1009.7 hPa | 0 mm | - | 613 W/m² | - |
| 1777926954 | 23.89° C | 37% | 1009.6 hPa | 0 mm | - | 613 W/m² | - |
| 1777926654 | 23.89° C | 36% | 1009.8 hPa | 0 mm | - | 622 W/m² | - |
| 1777926354 | 23.89° C | 37% | 1009.7 hPa | 0 mm | - | 636 W/m² | - |
| 1777926054 | 23.89° C | 35% | 1009.8 hPa | 0 mm | - | 643 W/m² | - |
| 1777925754 | 23.89° C | 36% | 1009.9 hPa | 0 mm | - | 650 W/m² | - |
| 1777925456 | 24.44° C | 34% | 1009.9 hPa | 0 mm | - | 666 W/m² | - |
| 1777925154 | 24.44° C | 34% | 1009.9 hPa | 0 mm | - | 703 W/m² | - |
| 1777924854 | 25° C | 34% | 1009.8 hPa | 0 mm | - | 754 W/m² | - |
| 1777924554 | 25.56° C | 33% | 1009.8 hPa | 0 mm | - | 756 W/m² | - |
| 1777924254 | 25° C | 35% | 1009.9 hPa | 0 mm | - | 751 W/m² | - |
| 1777923954 | 24.44° C | 35% | 1010 hPa | 0 mm | - | 719 W/m² | - |
| 1777923654 | 24.44° C | 34% | 1010.1 hPa | 0 mm | - | 733 W/m² | - |
| 1777923354 | 25° C | 34% | 1010.1 hPa | 0 mm | - | 737 W/m² | - |
| 1777923056 | 24.44° C | 33% | 1010.2 hPa | 0 mm | - | 744 W/m² | - |
| 1777922754 | 24.44° C | 33% | 1010.4 hPa | 0 mm | - | 758 W/m² | - |
| 1777922454 | 24.44° C | 34% | 1010.5 hPa | 0 mm | - | 761 W/m² | - |
| 1777922154 | 25° C | 32% | 1010.4 hPa | 0 mm | - | 772 W/m² | - |
| 1777921856 | 25° C | 36% | 1010.6 hPa | 0 mm | - | 779 W/m² | - |
| 1777921554 | 24.44° C | 35% | 1010.5 hPa | 0 mm | - | 788 W/m² | - |
| 1777921254 | 24.44° C | 33% | 1010.8 hPa | 0 mm | - | 795 W/m² | - |
| 1777920954 | 24.44° C | 34% | 1010.8 hPa | 0 mm | - | 800 W/m² | - |
| 1777920654 | 24.44° C | 35% | 1010.9 hPa | 0 mm | - | 802 W/m² | - |
| 1777920354 | 23.89° C | 33% | 1011 hPa | 0 mm | - | 807 W/m² | - |
| 1777920054 | 24.44° C | 36% | 1011 hPa | 0 mm | - | 800 W/m² | - |
* Rain latest hour (hover to see other rain measurements)
** Current wind speed in m/s (hover to see current wind gust speed)